TimeCDT,TemperatureF,Dew PointF,Humidity,Sea Level PressureIn,VisibilityMPH,Wind Direction,Wind SpeedMPH,Gust SpeedMPH,PrecipitationIn,Events,Conditions,WindDirDegrees,DateUTC
12:15 AM,50.0,33.8,54,29.92,10.0,South,16.1,-,N/A,,Clear,190,2012-10-09 05:15:00
12:35 AM,50.0,33.8,54,29.92,10.0,South,15.0,23.0,N/A,,Clear,190,2012-10-09 05:35:00
12:55 AM,50.0,35.6,58,29.92,10.0,SSW,17.3,24.2,N/A,,Clear,200,2012-10-09 05:55:00
1:15 AM,50.0,35.6,58,29.91,10.0,South,17.3,21.9,N/A,,Clear,190,2012-10-09 06:15:00
1:35 AM,50.0,35.6,58,29.91,10.0,SSW,13.8,-,N/A,,Clear,200,2012-10-09 06:35:00
1:55 AM,50.0,35.6,58,29.91,10.0,South,15.0,-,N/A,,Clear,190,2012-10-09 06:55:00
2:55 AM,48.2,35.6,62,29.90,10.0,SSW,15.0,23.0,N/A,,Clear,200,2012-10-09 07:55:00
3:15 AM,48.2,35.6,62,29.90,10.0,SSW,15.0,21.9,N/A,,Clear,200,2012-10-09 08:15:00
3:35 AM,48.2,35.6,62,29.90,10.0,SSW,16.1,-,N/A,,Clear,200,2012-10-09 08:35:00
3:55 AM,48.2,35.6,62,29.90,10.0,SSW,13.8,19.6,N/A,,Clear,200,2012-10-09 08:55:00
4:15 AM,48.2,35.6,62,29.91,10.0,SSW,12.7,-,N/A,,Clear,210,2012-10-09 09:15:00
4:35 AM,48.2,37.4,66,29.90,10.0,SSW,13.8,-,N/A,,Clear,200,2012-10-09 09:35:00
4:55 AM,46.4,35.6,66,29.90,10.0,South,12.7,-,N/A,,Clear,190,2012-10-09 09:55:00
5:15 AM,46.4,37.4,71,29.90,10.0,South,11.5,-,N/A,,Clear,190,2012-10-09 10:15:00
5:35 AM,46.4,37.4,71,29.90,10.0,South,10.4,-,N/A,,Clear,190,2012-10-09 10:35:00
5:55 AM,46.4,37.4,71,29.90,10.0,South,10.4,-,N/A,,Clear,190,2012-10-09 10:55:00
6:15 AM,46.4,37.4,71,29.90,10.0,SSW,10.4,-,N/A,,Clear,200,2012-10-09 11:15:00
6:35 AM,46.4,37.4,71,29.89,10.0,South,10.4,-,N/A,,Clear,190,2012-10-09 11:35:00
6:55 AM,46.4,37.4,71,29.89,10.0,South,12.7,-,N/A,,Partly Cloudy,190,2012-10-09 11:55:00
7:35 AM,46.4,37.4,71,29.89,10.0,South,15.0,-,N/A,,Partly Cloudy,190,2012-10-09 12:35:00
7:55 AM,46.4,37.4,71,29.88,10.0,South,13.8,-,N/A,,Clear,190,2012-10-09 12:55:00
8:15 AM,46.4,37.4,71,29.89,10.0,South,12.7,-,N/A,,Clear,190,2012-10-09 13:15:00
8:35 AM,48.2,37.4,66,29.89,10.0,South,16.1,21.9,N/A,,Clear,190,2012-10-09 13:35:00
8:55 AM,50.0,37.4,62,29.90,10.0,SSW,15.0,24.2,N/A,,Clear,210,2012-10-09 13:55:00
9:15 AM,50.0,37.4,62,29.91,10.0,SW,12.7,-,N/A,,Clear,230,2012-10-09 14:15:00
9:35 AM,50.0,37.4,62,29.91,10.0,SW,11.5,-,N/A,,Clear,220,2012-10-09 14:35:00
9:55 AM,50.0,37.4,62,29.91,10.0,SW,13.8,-,N/A,,Clear,220,2012-10-09 14:55:00
10:15 AM,50.0,37.4,62,29.91,10.0,SSW,11.5,-,N/A,,Clear,210,2012-10-09 15:15:00
10:35 AM,51.8,37.4,58,29.91,10.0,SW,12.7,-,N/A,,Clear,220,2012-10-09 15:35:00
10:55 AM,53.6,37.4,54,29.91,10.0,SSW,13.8,19.6,N/A,,Clear,210,2012-10-09 15:55:00
11:15 AM,57.2,37.4,48,29.91,10.0,SW,12.7,-,N/A,,Clear,230,2012-10-09 16:15:00
11:35 AM,57.2,37.4,48,29.91,10.0,WSW,13.8,20.7,N/A,,Clear,250,2012-10-09 16:35:00
11:55 AM,59.0,37.4,45,29.90,10.0,SW,15.0,20.7,N/A,,Clear,230,2012-10-09 16:55:00
12:15 PM,59.0,37.4,45,29.90,10.0,SW,12.7,-,N/A,,Clear,230,2012-10-09 17:15:00
12:35 PM,60.8,37.4,42,29.89,10.0,SW,11.5,-,N/A,,Clear,230,2012-10-09 17:35:00
12:55 PM,60.8,37.4,42,29.90,10.0,West,12.7,-,N/A,,Clear,260,2012-10-09 17:55:00
1:15 PM,59.0,37.4,45,29.90,10.0,West,15.0,19.6,N/A,,Clear,280,2012-10-09 18:15:00
1:35 PM,59.0,37.4,45,29.90,10.0,WNW,13.8,-,N/A,,Clear,300,2012-10-09 18:35:00
1:55 PM,59.0,37.4,45,29.90,10.0,WNW,13.8,-,N/A,,Clear,300,2012-10-09 18:55:00
2:15 PM,59.0,37.4,45,29.91,10.0,West,13.8,-,N/A,,Clear,280,2012-10-09 19:15:00
2:35 PM,59.0,37.4,45,29.91,10.0,West,12.7,18.4,N/A,,Clear,280,2012-10-09 19:35:00
2:55 PM,59.0,39.2,48,29.92,10.0,WNW,10.4,17.3,N/A,,Partly Cloudy,300,2012-10-09 19:55:00
3:15 PM,59.0,39.2,48,29.92,10.0,WNW,11.5,-,N/A,,Scattered Clouds,290,2012-10-09 20:15:00
3:35 PM,57.2,41.0,55,29.91,10.0,NW,16.1,21.9,N/A,,Mostly Cloudy,320,2012-10-09 20:35:00
3:55 PM,57.2,41.0,55,29.92,10.0,NNW,17.3,-,N/A,,Mostly Cloudy,330,2012-10-09 20:55:00
4:15 PM,55.4,41.0,58,29.94,10.0,NNW,18.4,24.2,N/A,,Overcast,330,2012-10-09 21:15:00
4:35 PM,53.6,39.2,58,29.94,10.0,NNW,19.6,27.6,N/A,,Overcast,330,2012-10-09 21:35:00
4:55 PM,50.0,41.0,71,29.96,10.0,NNW,19.6,-,N/A,,Mostly Cloudy,340,2012-10-09 21:55:00
5:15 PM,48.2,39.2,71,29.97,10.0,NNW,20.7,26.5,N/A,Rain,Light Rain,330,2012-10-09 22:15:00
5:55 PM,46.4,37.4,71,29.97,10.0,NW,12.7,-,N/A,,Overcast,320,2012-10-09 22:55:00
6:15 PM,46.4,37.4,71,29.98,10.0,NW,11.5,-,N/A,,Overcast,310,2012-10-09 23:15:00
6:35 PM,46.4,37.4,71,29.99,10.0,NW,6.9,-,N/A,,Overcast,320,2012-10-09 23:35:00
6:55 PM,46.4,37.4,71,29.99,10.0,WNW,8.1,-,N/A,,Overcast,300,2012-10-09 23:55:00
7:15 PM,46.4,37.4,71,30.00,10.0,NW,9.2,-,N/A,,Mostly Cloudy,310,2012-10-10 00:15:00
7:35 PM,46.4,35.6,66,30.01,10.0,WNW,9.2,-,N/A,,Mostly Cloudy,300,2012-10-10 00:35:00
7:55 PM,46.4,35.6,66,30.02,10.0,WNW,8.1,-,N/A,,Mostly Cloudy,290,2012-10-10 00:55:00
8:15 PM,44.6,35.6,71,30.02,10.0,West,8.1,-,N/A,,Scattered Clouds,280,2012-10-10 01:15:00
8:35 PM,44.6,35.6,71,30.03,10.0,West,6.9,-,N/A,,Clear,260,2012-10-10 01:35:00
8:55 PM,44.6,35.6,71,30.03,10.0,WSW,5.8,-,N/A,,Clear,250,2012-10-10 01:55:00
9:15 PM,41.0,35.6,81,30.04,10.0,WSW,6.9,-,N/A,,Clear,250,2012-10-10 02:15:00
9:35 PM,41.0,33.8,76,30.05,10.0,West,8.1,-,N/A,,Clear,260,2012-10-10 02:35:00
9:55 PM,39.2,32.0,75,30.06,10.0,West,12.7,16.1,N/A,,Clear,280,2012-10-10 02:55:00
10:15 PM,42.8,32.0,66,30.07,10.0,WNW,11.5,-,N/A,,Clear,300,2012-10-10 03:15:00
10:35 PM,41.0,32.0,70,30.08,10.0,NW,11.5,-,N/A,,Clear,310,2012-10-10 03:35:00
10:55 PM,41.0,32.0,70,30.08,10.0,NW,9.2,-,N/A,,Clear,310,2012-10-10 03:55:00
11:15 PM,39.2,32.0,75,30.09,10.0,NW,8.1,-,N/A,,Clear,310,2012-10-10 04:15:00
11:35 PM,37.4,30.2,75,30.09,10.0,WNW,8.1,-,N/A,,Clear,290,2012-10-10 04:35:00
11:55 PM,37.4,30.2,75,30.09,10.0,WNW,9.2,-,N/A,,Clear,290,2012-10-10 04:55:00